Location: Nitra
(0.0000°N, 18.0833°E)
Time: 00:48:05
(UTC+02:00)

N. Korean satellite - Pass Details

Date: 25 April 2021
Orbit: 451 x 500 km, 97.2° (Epoch: 07 May)

Event Time Altitude Azimuth Distance (km) Brightness Sun altitude
Rises 05:35:15 0° 18° (NNE) 2,467 10.6 -17.1°
Reaches altitude 10° 05:37:19 10° 22° (NNE) 1,590 9.7 -16.6°
Maximum altitude 05:40:39 55° 100° (E) 552 7.1 -15.8°
Drops below altitude 10° 05:43:58 10° 179° (S) 1,584 9.0 -15.0°
Sets 05:46:02 0° 184° (S) 2,456 10.0 -14.5°
